• en Belgique
  • Liste des pays
  • À 7 jours
  • Température de l'eau
  • Carte satellitaire
  • Carte météo
  • Widgets météo
  • user-avatar
    Se connecter

    Météo par heure à Annaba

    Ce jour, 17 Août, Jeudi

    Heure Température Précipitation Vent Pression Humidité
    00:00 +32°C° 0 mm 2 m/s 760 mmHg 47%
    01:00 +31°C° 0 mm 2 m/s 760 mmHg 49%
    02:00 +31°C° 0 mm 2 m/s 760 mmHg 54%
    03:00 +30°C° 0 mm 2 m/s 760 mmHg 58%
    04:00 +29°C° 0 mm 2 m/s 760 mmHg 63%
    05:00 +30°C° 0 mm 2 m/s 760 mmHg 65%
    06:00 +30°C° 0 mm 2 m/s 760 mmHg 67%
    07:00 +30°C° 0 mm 2 m/s 760 mmHg 68%
    08:00 +31°C° 0 mm 2 m/s 760 mmHg 62%
    09:00 +34°C° 0 mm 2 m/s 761 mmHg 55%
    10:00 +36°C° 0 mm 2 m/s 761 mmHg 48%
    11:00 +37°C° 0 mm 2 m/s 761 mmHg 45%
    12:00 +38°C° 0 mm 3 m/s 761 mmHg 43%
    13:00 +38°C° 0 mm 3 m/s 760 mmHg 40%
    14:00 +38°C° 0 mm 4 m/s 760 mmHg 42%
    15:00 +38°C° 0 mm 4 m/s 760 mmHg 43%
    16:00 +38°C° 0 mm 4 m/s 760 mmHg 44%
    17:00 +36°C° 0 mm 3 m/s 760 mmHg 48%
    18:00 +35°C° 0 mm 3 m/s 760 mmHg 51%
    19:00 +34°C° 0 mm 2 m/s 760 mmHg 54%
    20:00 +32°C° 0 mm 2 m/s 760 mmHg 57%
    21:00 +31°C° 0 mm 1 m/s 761 mmHg 59%
    22:00 +30°C° 0 mm 1 m/s 761 mmHg 61%
    23:00 +30°C° 0 mm 1 m/s 761 mmHg 62%

    Demain, 18 Août, Vendredi

    Heure Température Précipitation Vent Pression Humidité
    00:00 +29°C° 0 mm 1 m/s 761 mmHg 63%
    01:00 +29°C° 0 mm 1 m/s 761 mmHg 64%
    02:00 +29°C° 0 mm 1 m/s 761 mmHg 65%
    03:00 +28°C° 0 mm 1 m/s 760 mmHg 66%
    04:00 +28°C° 0 mm 1 m/s 760 mmHg 67%
    05:00 +26°C° 0 mm 0 m/s 760 mmHg 65%
    06:00 +27°C° 0 mm 0 m/s 760 mmHg 63%
    07:00 +27°C° 0 mm 0 m/s 761 mmHg 61%
    08:00 +31°C° 0 mm 1 m/s 761 mmHg 53%
    09:00 +33°C° 0 mm 1 m/s 761 mmHg 45%
    10:00 +36°C° 0 mm 1 m/s 761 mmHg 37%
    11:00 +37°C° 0 mm 2 m/s 760 mmHg 35%
    12:00 +38°C° 0 mm 3 m/s 760 mmHg 33%
    13:00 +40°C° 0 mm 4 m/s 760 mmHg 31%
    14:00 +40°C° 0 mm 4 m/s 759 mmHg 31%
    15:00 +40°C° 0 mm 4 m/s 759 mmHg 32%
    16:00 +40°C° 0 mm 5 m/s 759 mmHg 32%
    17:00 +38°C° 0 mm 4 m/s 759 mmHg 36%
    18:00 +36°C° 0 mm 4 m/s 759 mmHg 39%
    19:00 +35°C° 0 mm 3 m/s 759 mmHg 43%
    20:00 +34°C° 0 mm 3 m/s 759 mmHg 45%
    21:00 +32°C° 0 mm 2 m/s 760 mmHg 48%
    22:00 +31°C° 0 mm 2 m/s 760 mmHg 50%
    23:00 +31°C° 0 mm 1 m/s 760 mmHg 51%

    Après-demain, 19 Août, Samedi

    Heure Température Précipitation Vent Pression Humidité
    00:00 +30°C° 0 mm 1 m/s 760 mmHg 51%
    01:00 +30°C° 0 mm 1 m/s 759 mmHg 51%
    02:00 +30°C° 0 mm 1 m/s 759 mmHg 52%
    03:00 +30°C° 0 mm 1 m/s 759 mmHg 53%
    04:00 +29°C° 0 mm 1 m/s 759 mmHg 54%
    05:00 +29°C° 0 mm 1 m/s 759 mmHg 55%
    06:00 +30°C° 0 mm 2 m/s 759 mmHg 55%
    07:00 +30°C° 0 mm 2 m/s 759 mmHg 56%
    08:00 +31°C° 0 mm 2 m/s 760 mmHg 51%
    09:00 +34°C° 0 mm 2 m/s 760 mmHg 47%
    10:00 +35°C° 0 mm 2 m/s 760 mmHg 42%
    11:00 +36°C° 0 mm 3 m/s 760 mmHg 41%
    12:00 +37°C° 0 mm 4 m/s 760 mmHg 39%
    13:00 +37°C° 0 mm 4 m/s 760 mmHg 37%
    14:00 +37°C° 0 mm 4 m/s 760 mmHg 38%
    15:00 +37°C° 0 mm 4 m/s 760 mmHg 38%
    16:00 +37°C° 0 mm 4 m/s 760 mmHg 38%
    17:00 +35°C° 0 mm 4 m/s 760 mmHg 43%
    18:00 +34°C° 0 mm 4 m/s 760 mmHg 48%
    19:00 +32°C° 0 mm 4 m/s 761 mmHg 53%
    20:00 +30°C° 0 mm 4 m/s 761 mmHg 60%
    21:00 +29°C° 0 mm 3 m/s 762 mmHg 68%
    22:00 +28°C° 0 mm 3 m/s 763 mmHg 75%
    23:00 +27°C° 0 mm 2 m/s 763 mmHg 78%

    20 Août, Dimanche

    Heure Température Précipitation Vent Pression Humidité
    00:00 +27°C° 0 mm 2 m/s 763 mmHg 81%
    01:00 +27°C° 0 mm 2 m/s 763 mmHg 84%
    02:00 +26°C° 0 mm 2 m/s 763 mmHg 84%
    03:00 +26°C° 0 mm 2 m/s 763 mmHg 85%
    04:00 +26°C° 0 mm 2 m/s 762 mmHg 86%
    05:00 +26°C° 0 mm 2 m/s 762 mmHg 83%
    06:00 +26°C° 0 mm 2 m/s 763 mmHg 81%
    07:00 +26°C° 0 mm 2 m/s 763 mmHg 78%
    08:00 +28°C° 0 mm 2 m/s 763 mmHg 68%
    09:00 +30°C° 0 mm 3 m/s 763 mmHg 57%
    10:00 +31°C° 0 mm 3 m/s 763 mmHg 47%
    11:00 +33°C° 0 mm 4 m/s 763 mmHg 42%
    12:00 +34°C° 0 mm 4 m/s 763 mmHg 38%
    13:00 +35°C° 0 mm 5 m/s 762 mmHg 34%
    14:00 +35°C° 0 mm 5 m/s 762 mmHg 33%
    15:00 +35°C° 0 mm 5 m/s 762 mmHg 33%
    16:00 +34°C° 0 mm 5 m/s 762 mmHg 33%
    17:00 +33°C° 0 mm 5 m/s 762 mmHg 37%
    18:00 +30°C° 0 mm 4 m/s 762 mmHg 41%
    19:00 +29°C° 0 mm 4 m/s 762 mmHg 46%
    20:00 +28°C° 0 mm 3 m/s 762 mmHg 50%
    21:00 +27°C° 0 mm 3 m/s 762 mmHg 55%
    22:00 +26°C° 0 mm 3 m/s 763 mmHg 60%
    23:00 +26°C° 0 mm 3 m/s 762 mmHg 61%

    21 Août, Lundi

    Heure Température Précipitation Vent Pression Humidité
    00:00 +25°C° 0 mm 2 m/s 762 mmHg 63%
    01:00 +25°C° 0 mm 2 m/s 762 mmHg 64%
    02:00 +25°C° 0 mm 2 m/s 762 mmHg 64%
    03:00 +24°C° 0 mm 2 m/s 761 mmHg 64%
    04:00 +24°C° 0 mm 2 m/s 761 mmHg 64%
    05:00 +24°C° 0 mm 2 m/s 761 mmHg 62%
    06:00 +25°C° 0 mm 2 m/s 762 mmHg 59%
    07:00 +25°C° 0 mm 1 m/s 762 mmHg 57%
    08:00 +27°C° 0 mm 2 m/s 762 mmHg 49%
    09:00 +29°C° 0 mm 2 m/s 762 mmHg 41%
    10:00 +31°C° 0 mm 2 m/s 762 mmHg 33%
    11:00 +32°C° 0 mm 2 m/s 761 mmHg 31%
    12:00 +34°C° 0 mm 3 m/s 761 mmHg 29%
    13:00 +35°C° 0 mm 3 m/s 761 mmHg 27%
    14:00 +35°C° 0 mm 3 m/s 760 mmHg 30%
    15:00 +35°C° 0 mm 4 m/s 760 mmHg 32%
    16:00 +35°C° 0 mm 4 m/s 760 mmHg 35%
    17:00 +33°C° 0 mm 3 m/s 760 mmHg 41%
    18:00 +31°C° 0 mm 3 m/s 760 mmHg 48%
    19:00 +29°C° 0 mm 2 m/s 760 mmHg 54%
    20:00 +28°C° 0 mm 2 m/s 760 mmHg 60%
    21:00 +27°C° 0 mm 2 m/s 761 mmHg 65%
    22:00 +26°C° 0 mm 1 m/s 761 mmHg 71%
    23:00 +26°C° 0 mm 1 m/s 761 mmHg 72%

    22 Août, Mardi

    Heure Température Précipitation Vent Pression Humidité
    00:00 +26°C° 0 mm 1 m/s 761 mmHg 72%
    01:00 +25°C° 0 mm 1 m/s 761 mmHg 73%
    02:00 +25°C° 0 mm 1 m/s 760 mmHg 73%
    03:00 +25°C° 0 mm 1 m/s 760 mmHg 73%
    04:00 +25°C° 0 mm 1 m/s 760 mmHg 73%
    05:00 +25°C° 0 mm 1 m/s 760 mmHg 70%
    06:00 +25°C° 0 mm 1 m/s 760 mmHg 67%
    07:00 +26°C° 0 mm 1 m/s 761 mmHg 64%
    08:00 +28°C° 0 mm 1 m/s 761 mmHg 55%
    09:00 +30°C° 0 mm 1 m/s 760 mmHg 46%
    10:00 +32°C° 0 mm 1 m/s 760 mmHg 37%
    11:00 +34°C° 0 mm 2 m/s 760 mmHg 34%
    12:00 +35°C° 0 mm 3 m/s 760 mmHg 32%
    13:00 +36°C° 0 mm 3 m/s 759 mmHg 29%
    14:00 +36°C° 0 mm 4 m/s 759 mmHg 31%
    15:00 +36°C° 0 mm 4 m/s 759 mmHg 34%
    16:00 +36°C° 0 mm 5 m/s 758 mmHg 36%
    17:00 +34°C° 0 mm 4 m/s 758 mmHg 41%
    18:00 +33°C° 0 mm 4 m/s 759 mmHg 47%
    19:00 +30°C° 0 mm 3 m/s 759 mmHg 52%
    20:00 +29°C° 0 mm 2 m/s 759 mmHg 56%
    21:00 +28°C° 0 mm 2 m/s 759 mmHg 60%
    22:00 +27°C° 0 mm 1 m/s 760 mmHg 64%
    23:00 +27°C° 0 mm 1 m/s 760 mmHg 65%
    Voir plus